Location: Observatorio Las Palmas
(29.0667°N, 110.9333°W)
Time: 07:15:37
(UTC-07:00)

Skynet4D Del rocket - Visible Passes

Search period start: 31 August 2016 00:00
Search period end: 10 September 2016 00:00
Orbit: 763 x 1291 km, 26.9° (Epoch: 30 August)

Date Brightness Start Highest point End Pass type
(mag) Time Alt. Az. Time Alt. Az. Time Alt. Az.
31 Aug 6.7 02:18:01 12° ESE 02:18:01 12° ESE 02:18:29 10° ESE visible
31 Aug 5.1 04:03:41 36° SSW 04:03:41 36° SSW 04:10:17 10° SE visible
31 Aug 5.7 19:16:09 10° S 19:20:07 16° SSE 19:24:14 10° ESE visible
31 Aug 5.2 21:05:37 10° SW 21:09:53 34° SSW 21:09:53 34° SSW visible
01 Sep 6.2 02:57:28 19° SE 02:57:28 19° SE 02:59:31 10° SE visible
01 Sep 5.6 04:43:09 20° SW 04:44:24 21° SSW 04:49:55 10° SSE visible
01 Sep 5.0 19:55:19 10° SSW 20:01:04 30° SSE 20:03:26 25° ESE visible
01 Sep 5.8 21:46:29 10° WSW 21:49:05 25° WSW 21:49:05 25° WSW visible
02 Sep 5.9 03:36:58 21° SSE 03:36:58 21° SSE 03:39:56 10° SSE visible
02 Sep 4.4 20:35:42 10° SW 20:42:11 48° SSE 20:42:31 48° SSE visible
02 Sep 6.6 22:27:43 10° WSW 22:28:09 12° WSW 22:28:09 12° WSW visible
03 Sep 6.1 04:16:28 16° S 04:16:28 16° S 04:19:11 10° S visible
03 Sep 4.9 19:25:20 10° SW 19:30:59 33° SSE 19:35:52 16° E visible
03 Sep 4.8 21:16:40 10° WSW 21:21:30 48° SW 21:21:30 48° SW visible
04 Sep 4.3 20:05:53 10° WSW 20:12:07 52° SSE 20:14:47 35° ESE visible
04 Sep 5.8 21:57:55 10° W 22:00:24 25° WSW 22:00:24 25° WSW visible
05 Sep 4.7 18:55:26 10° SW 19:00:57 37° SSE 19:07:12 10° E visible
05 Sep 4.0 20:46:56 10° WSW 20:53:27 69° S 20:53:36 69° SSE visible
06 Sep 4.2 19:36:08 10° WSW 19:42:08 56° SSE 19:46:44 21° E visible
06 Sep 5.0 21:28:12 10° W 21:32:21 42° WSW 21:32:21 42° WSW visible
07 Sep 4.0 20:17:15 10° WSW 20:23:29 71° S 20:25:27 48° ESE visible
07 Sep 6.2 22:09:34 10° W 22:11:04 18° W 22:11:04 18° W visible
08 Sep 4.1 19:06:28 10° WSW 19:12:14 60° SSE 19:18:30 11° E visible
08 Sep 4.2 20:58:33 10° W 21:04:07 67° SW 21:04:07 67° SW visible
09 Sep 3.9 19:47:38 10° W 19:53:35 73° S 19:57:09 29° E visible
09 Sep 5.6 21:39:55 10° W 21:42:46 29° W 21:42:46 29° W visible
